Regional Weather Roundup
Issued by NWS Sterling, VA

Home | Current Version | Previous Version | Graphics & Text | Print | Product List | Glossary On
Versions: 1 2 3 4 5 6 7 8 9 10 11 12 13 14 15 16 17 18 19 20 21 22 23 24 25 26 27 28 29 30 31 32 33 34 35 36 37 38 39 40 41 42 43 44 45 46 47 48 49 50
000
ASUS41 KLWX 060810
RWRLWX

REGIONAL WEATHER ROUNDUP
NATIONAL WEATHER SERVICE BALTIMORE MD/WASHINGTON DC
400 AM EDT FRI MAY 06 2016

Note: "FAIR" indicates few or no clouds below 12,000 feet
with no significant weather and/or obstructions to visibility.
 TC=TEMPERATURE CELSIUS

 * =Non NWS site. Station does not report precipitation (e.g. rain,
    snow, etc.), thunder, or fog.

DCZ001-MDZ009-015-VAZ040>042-051-053>054-060900-
WASHINGTON METRO

CITY           SKY/WX    TMP DP  RH WIND       PRES   REMARKS
WASHINGTON NAT CLOUDY    54  49  83 N10       29.64F
DULLES         CLOUDY    52  48  86 N9        29.65F
ANDREWS AFB    CLOUDY    52  49  90 N7        29.63R
FT BELVOIR     MOCLDY    53  49  88 NW3       29.64F
QUANTICO       LGT RAIN  53  50  89 N10       29.65F
COLLEGE PARK*  CLOUDY    52  46  82 CALM      29.63F
LEESBURG*      LGT RAIN  54  52  94 N7        29.67F
MANASSAS*      CLOUDY    52  52 100 NW8       29.66F
GAITHERSBURG*  CLOUDY    50  46  87 CALM      29.68F

$$

MDZ006>007-011-014-060900-
BALTIMORE METRO

CITY           SKY/WX    TMP DP  RH WIND       PRES   REMARKS
BWI AIRPORT    CLOUDY    53  48  83 N8        29.63F
MD SCIENCE CTR   N/A     55  47  74 MISG      29.64F
MARTIN STATE   MOCLDY    54  50  87 NW5       29.65F
ANNAPOLIS      CLOUDY    54  50  86 E5        29.63S
FORT MEADE*    CLOUDY    52  46  82 N3        29.66F

$$

MDZ012-015-019>023-060900-
MARYLAND EASTERN SHORE

CITY           SKY/WX    TMP DP  RH WIND       PRES   REMARKS
OCEAN CITY     RAIN      48  46  93 NE7       29.63R FOG
SALISBURY      LGT RAIN  49  47  93 NE9       29.62R FOG
CAMBRIDGE*       N/A     50  46  87 N7        29.62R
EASTON*        CLOUDY   N/A N/A N/A NE7       29.67R

$$

MDZ017>025-060900-
SOUTHERN MARYLAND

CITY           SKY/WX    TMP DP  RH WIND       PRES   REMARKS
PATUXENT RIVER CLOUDY    53  48  83 NE13      29.62S
ST INIGOES     CLOUDY    53  49  86 VRB5      29.61S
LEONARDTOWN*   CLOUDY    50  48  93 CALM      29.64S

$$

MDZ003>005-060900-
NORTH CENTRAL MARYLAND

CITY           SKY/WX    TMP DP  RH WIND       PRES   REMARKS
FREDERICK*     CLOUDY    50  50 100 N3        29.70F
HAGERSTOWN APT CLOUDY    52  48  86 N6        29.68S
WESTMINSTER*   DRIZZLE   52  46  82 N3        29.67S

$$

MDZ501>502-060900-
WESTERN MARYLAND

CITY           SKY/WX    TMP DP  RH WIND       PRES   REMARKS
OAKLAND*       FOG       41  41 100 N5        29.73S VSB 1/4
CUMBERLAND*    CLOUDY    54  46  76 N6        29.75S

$$

VAZ025>031-060900-
SHENANDOAH VALLEY

CITY           SKY/WX    TMP DP  RH WIND       PRES   REMARKS
WINCHESTER*    LGT RAIN  50  48  93 NW7       29.69S
FRONT ROYAL*   CLOUDY    50  48  93 NW3       29.68S
LURAY*         DRIZZLE   50  50 100 CALM      29.69S
NEW MARKET*    CLOUDY    49  49  98 CALM      29.69S
STAUNTON*      RAIN      51  51 100 N5        29.70S
WAYNESBORO*    CLOUDY    48  47  96 N6        29.68S

$$

WVZ021-048>050-054>055-060900-
EASTERN WEST VIRGINIA PANHANDLE

CITY           SKY/WX    TMP DP  RH WIND       PRES   REMARKS
MARTINSBURG    LGT RAIN  51  48  89 N5        29.68S
PETERSBURG*    CLOUDY    51  49  92 CALM      29.73S

$$

VAZ036>039-050-060900-
CENTRAL FOOTHILLS

CITY           SKY/WX    TMP DP  RH WIND       PRES   REMARKS
CHARLOTTESVILL LGT RAIN  52  48  86 N3        29.66S
CULPEPER*      RAIN      52  51  98 N5        29.67F
ORANGE*        DRIZZLE   52  52 100 NE7       29.68S
GORDONSVILLE*  CLOUDY    51  50  97 N6        29.66S FOG
WARRENTON*     DRIZZLE   52  47  83 N8        29.66S

$$

VAZ055>057-060900-
NORTH AND CENTRAL PIEDMONT

CITY           SKY/WX    TMP DP  RH WIND       PRES   REMARKS
FREDERICKSBRG* LGT RAIN  52  52 100 NW6       29.64S
STAFFORD*      CLOUDY    51  49  93 NW8       29.69S

$$

NCZ024-NYZ072-PAZ021-071-VAZ022-071-060900-
OTHER REGIONAL OBSERVATIONS

CITY           SKY/WX    TMP DP  RH WIND       PRES   REMARKS
NEW YORK CITY  LGT RAIN  49  45  86 NE8       29.69F
PHILADELPHIA   LGT RAIN  52  47  83 NE6       29.65F
PITTSBURGH     CLOUDY    51  42  71 N14       29.78S
ROANOKE        CLOUDY    50  47  89 CALM      29.71F
RICHMOND       HVY RAIN  51  50  96 NW3       29.64S FOG
RALEIGH        LGT RAIN  50  49  96 CALM      29.66S

$$

ANZ530>537-060900-
MARINE OBSERVATIONS

STATION/POSITION TIME  TEMP    WIND        PRES
                       AIR SEA DIR/SP/G
                 (UTC) (F)     (DEG/KT/KT) (MB)
THOMAS PT LIGHT  0800   53 57   40/  7/  9 1004.6F
BALT KEY BRIDGE  0700   55     360/  7/  8 1003.9F
COVE POINT       0700   51      60/  6/  9 1003.6F
LEWISETTA        0700   54 60   50/  7/ 10 1002.7F
SOLOMONS ISLAND  0700   53 60   50/  5/  7   N/A
PINEY POINT      0700           10/  7/  7   N/A

$$




USA.gov is the U.S. government's official web portal to all federal, state and local government web resources and services.